• Processing (Info)

  • MPEC 2014-Q35 : 2014 QX33

    The following Minor Planet Electronic Circular may be linked-to from your own Web pages, but must not otherwise be redistributed electronically.

    A form allowing access to any MPEC is at the bottom of this page.


    Read MPEC 2014-Q34 Read MPEC 2014-Q36


    M.P.E.C. 2014-Q35                                Issued 2014 Aug. 24, 14:05 UT
    
         The Minor Planet Electronic Circulars contain information on unusual
             minor planets and routine data on comets.  They are published
       on behalf of Commission 20 of the International Astronomical Union by the
              Minor Planet Center, Smithsonian Astrophysical Observatory,
                              Cambridge, MA 02138, U.S.A.
    
                 Prepared using the Tamkin Foundation Computer Network
    
                                  MPC@CFA.HARVARD.EDU
                URL https://www.minorplanetcenter.net/    ISSN 1523-6714
    
                                       2014 QX33
    
    Observations:
         K14Q33X* C2014 08 22.39108 20 16 55.248-29 34 05.20         17.7 wLEQ035F51
         K14Q33X  C2014 08 22.40256 20 16 57.013-29 35 26.71         17.7 wLEQ035F51
         K14Q33X  C2014 08 22.41400 20 16 58.764-29 36 47.72         17.7 wLEQ035F51
         K14Q33X KC2014 08 22.86236 20 18 20.01 -30 29 57.1                qEQ035595
         K14Q33X KC2014 08 22.87205 20 18 21.59 -30 31 05.7          17.3 VqEQ035595
         K14Q33X KC2014 08 22.87940 20 18 22.81 -30 31 57.5          17.4 VqEQ035595
         K14Q33X  C2014 08 23.10939 20 19 02.76 -30 58 10.3          18.2 RrEQ035Y00
         K14Q33X  C2014 08 23.11891 20 19 04.27 -30 59 16.3          18.3 RrEQ035Y00
         K14Q33X  C2014 08 23.12879 20 19 05.83 -31 00 24.8          18.4 RrEQ035Y00
         K14Q33X KC2014 08 23.14338 20 19 11.13 -31 02 46.8          17.3 RqEQ035H36
         K14Q33X KC2014 08 23.14586 20 19 11.56 -31 03 04.0          17.3 RqEQ035H36
         K14Q33X KC2014 08 23.15076 20 19 12.41 -31 03 38.8          18.0 RqEQ035H36
         K14Q33X KC2014 08 23.26609820 19 29.89 -31 16 08.8          17.7 RqEQ035W86
         K14Q33X KC2014 08 23.27055220 19 30.63 -31 16 39.3          17.8 RqEQ035W86
         K14Q33X KC2014 08 23.27499420 19 31.39 -31 17 09.7          17.8 RqEQ035W86
         K14Q33X KC2014 08 23.27945420 19 32.15 -31 17 40.3          17.6 RqEQ035W86
         K14Q33X KC2014 08 23.28390920 19 32.91 -31 18 10.8          17.8 RqEQ035W86
         K14Q33X _C2014 08 23.34087520 19 46.580-31 25 34.93         17.5 RtEQ035568
         K14Q33X _C2014 08 23.34212720 19 46.781-31 25 43.74         17.5 RtEQ035568
         K14Q33X _C2014 08 23.34338020 19 46.980-31 25 52.46         17.5 RtEQ035568
         K14Q33X [C2014 08 23.45583 20 20 08.40 -31 38 11.9          18.5 VuEQ035Q62
         K14Q33X [C2014 08 23.45824 20 20 08.79 -31 38 28.4          18.3 VuEQ035Q62
         K14Q33X KC2014 08 24.39389 20 23 04.77 -33 24 40.5          17.8 VqEQ035E23
         K14Q33X KC2014 08 24.39722 20 23 05.32 -33 25 03.1          17.5 VqEQ035E23
         K14Q33X KC2014 08 24.40056 20 23 05.92 -33 25 25.8          17.8 VqEQ035E23
         K14Q33X KC2014 08 24.42628 20 23 10.38 -33 28 20.4          17.9 VqEQ035E23
         K14Q33X KC2014 08 24.43184 20 23 11.35 -33 28 57.9          17.8 VqEQ035E23
         K14Q33X KC2014 08 24.43740 20 23 12.30 -33 29 35.4          17.7 VqEQ035E23
    
    Observer details:
    568 Mauna Kea.  Observers R. J. Wainscoat, L. Wells.  Measurers M. Micheli,
        R. J. Wainscoat.  3.6-m Canada-France-Hawaii Telescope + CCD.
    595 Farra d'Isonzo.  Observer E. Pettarin.  0.61-m f/4.0 reflector + CCD.
    E23 Arcadia.  Observer A. Hidas.  0.35-m Schmidt-Cassegrain + CCD.
    F51 Pan-STARRS 1, Haleakala.  Observers N. Primak, A. Schultz, T. Goggia,
        M. Willman.  Measurers B. Bolin, K. Chambers, S. Chastel, L. Denneau,
        H. Flewelling, M. Huber, E. Magnier, E. Schunova, R. Wainscoat, C. Waters.
        1.8-m Ritchey-Chretien + CCD.
    H36 Sandlot Observatory, Scranton.  Observer G. Hug.  0.56-m reflector + CCD.
    Q62 iTelescope Observatory, Siding Spring.  Observer M. Suzuki.  0.43-m f/6.8
        astrograph + CCD.
    W86 Cerro Tololo-LCOGT B.  Observer T. Lister.  1.0-m f/8 Ritchey-Chretien
        + CCD.
    Y00 SONEAR Observatory, Oliveira.  Observers C. Jacques, E. Pimentel,
        J. Barros.  Measurer C. Jacques.  0.45-m f/2.9 reflector + CCD.
    
    Orbital elements:
    2014 QX33                                                Earth MOID = 0.1540 AU
    Epoch 2014 Dec. 9.0 TT = JDT 2457000.5                  MPC
    M  45.66168              (2000.0)            P               Q
    n   0.44253098     Peri.  188.88698     +0.86021767     +0.45851639
    a   1.7054550      Node   141.17426     -0.44325101     +0.88868361
    e   0.3181965      Incl.   20.84861     -0.25209938     +0.00203885
    P   2.23           H   20.1           G   0.15           U   7
    Residuals in seconds of arc
    140822 F51  0.1+  0.1-    140823 H36  0.1-  0.0     140823 Q62  0.0   0.0
    140822 F51  0.1+  0.0     140823 H36  0.6+  0.4-    140823 Q62  0.1-  0.3+
    140822 F51  0.0   0.1+    140823 W86  0.1+  0.1-    140824 E23  0.2+  0.0
    140822 595  0.4-  0.5+    140823 W86  0.1-  0.1-    140824 E23  0.2-  0.1+
    140822 595  0.3-  0.3+    140823 W86  0.0   0.1-    140824 E23  0.0   0.1+
    140822 595  0.1+  0.3+    140823 W86  0.0   0.2-    140824 E23  0.1+  0.1-
    140823 Y00  0.1-  0.1-    140823 W86  0.0   0.2-    140824 E23  0.3+  0.1+
    140823 Y00  0.3-  0.1-    140823 568  0.1-  0.0     140824 E23  0.2+  0.2+
    140823 Y00  0.6-  0.2-    140823 568  0.0   0.1-
    140823 H36  0.4-  0.2-    140823 568  0.1-  0.0
    
    Ephemeris:
    2014 QX33                a,e,i = 1.71, 0.32, 21                  q = 1.1628
    Date    TT    R. A. (2000) Decl.     Delta      r     Elong.  Phase     V
    2014 07 25    19 33 10.8 +19 57 26   0.2330  1.2012   138.9    33.8    18.7
    ...
    2014 08 09    19 47 42.7 -01 33 36   0.1761  1.1750   154.2    22.0    17.7
    ...
    2014 08 17    20 02 50.7 -18 17 02   0.1678  1.1668   155.1    21.4    17.6
    ...
    2014 08 23    20 18 44.2 -30 45 11   0.1743  1.1636   148.5    27.0    17.8
    2014 08 24    20 21 48.0 -32 40 20   0.1765  1.1633   147.1    28.2    17.9
    2014 08 25    20 24 59.2 -34 31 43   0.1788  1.1630   145.7    29.3    18.0
    ...
    2014 08 31    20 46 36.5 -44 09 30   0.1980  1.1631   137.4    36.0    18.4
    ...
    2014 09 08    21 21 09.8 -52 51 14   0.2335  1.1671   128.4    42.5    18.9
    ...
    2014 09 23    22 31 05.8 -59 23 37   0.3155  1.1862   118.3    48.2    19.8
    
    A. U. Tomatic                (C) Copyright 2014 MPC           M.P.E.C. 2014-Q35
    

    Read MPEC 2014-Q34 Read MPEC 2014-Q36


    MPEC number:

    Enter an MPEC number in one of the following forms:

    • 1997-B01 (the full form)
    • J97B01 (the packed version of the full form)
    • B01 (the abbreviated form)